Aérodrome :
LOGIN :

S'inscrire | Disclaimer

   EN    FR    IT 

 










Légende :    VFR   VFR Marginal   IFR   IFR Intensif   IFR Très Intensif
Visi : 
Plafond : 
>= 8 km
>= 3000ft
5 à 8 km
1000 à 3000 ft
1500m à 5 km
500 à 1000 ft
800 à 1500m
200 à 500 ft
< 800m
< 200 ft
Symboles :   Orages  Brouillard  Fortes neiges  Fortes précipitations  Vent > 20 kt
SIGMETs :   Divers  Orages  Givrage  Turbulence  Onde Orograph.  Cendres Volcan.







- Altitude de l'aérodrome : 640 ft
- Code IATA : AOC


EDAC - Altenburg-Nobitz

DERNIER METAR :
  • 241850Z AUTO 20003KT 150V220 9999 // FEW180/// SCT220/// 17/10 Q1013

METARs EXPIRÉS :
  • 241820Z AUTO 26003KT 9999 // BKN180/// 18/09 Q1013
  • 241750Z 29005KT CAVOK 19/09 Q1013
  • 241720Z 28005KT CAVOK 20/09 Q1013
  • 241650Z 30005KT CAVOK 21/09 Q1013
  • 241620Z 31006KT CAVOK 21/07 Q1013

TAF TAF EDAC
Valide du 24 à 18h jusqu'au 25 à 03h UTC


241700Z 2418/2503 VRB03KT CAVOK
Pas de NOTAMs connus pour ce terrain.



MET'MAP, la Météo Aéronautique d'un coup d'oeil ! - Copyright ORBIFLY Décembre 2007 - Disclaimer

ORBIFLY MET'MAP TEAM :

Programmation & Développement : Alexandra Zaïnal
Conception & Développement : Baudouin d'Aumeries
Co-Programmation & Développement : Marc-Olivier Méhu
Soutien technique & logistique : Manuel Goepfert

Contact : metmap@orbifly.com




SOURCES & CREDITS :

   NOAA